Weather History for Leadville, CO

Change the Weather History Date:

Monday, February 25, 2013

  Actual Average Record
Temperature  
Mean Temperature 9 °F -  
Max Temperature 26 °F 33 °F 50 °F (1988)
Min Temperature -8 °F 6 °F -11 °F (1979)
Degree Days  
Heating Degree Days 56 45  
Month to date heating degree days 1277 1177  
Since 1 July heating degree days 7367 7574  
Cooling Degree Days 0 0  
Month to date cooling degree days 0 0  
Year to date cooling degree days 0 0  
Moisture  
Dew Point -3 °F    
Average Humidity 59    
Maximum Humidity 86    
Minimum Humidity 31    
Precipitation  
Precipitation 0.00 in 0.03 in 0.32 in (2003)
Month to date precipitation 0.91 0.62  
Year to date precipitation 1.58 1.24  
Sea Level Pressure  
Sea Level Pressure 30.01 in    
Wind  
Wind Speed 9 mph (North)    
Max Wind Speed 17 mph    
Max Gust Speed 23 mph    
Visibility 10 miles    
Events      
T = Trace of Precipitation, MM = Missing Value Source: NWS Daily Summary

Daily Weather History Graph

Daily Weather History Graph

Search for Another Location

Airport:

Trip Planner

Search our weather history database for the weather conditions in past years. The results will help you decide how hot, cold, wet, or windy it might be!

Date:

Astronomy

Feb. 25, 2013 Rise Set
Actual Time 6:43 AM MST 5:53 PM MST
Civil Twilight 6:16 AM MST 6:20 PM MST
Nautical Twilight 5:45 AM MST 6:51 PM MST
Astronomical Twilight 5:14 AM MST 7:22 PM MST
Moon 6:09 PM MST (2/25) 6:15 AM MST (2/25)
Length of Visible Light 12h 04m
Length of Day
11h 10m
Full, 100% of the Moon is Illuminated
Feb 25
Full
Feb 25
Full
Mar 4
Last Quarter
Mar 11
New
Mar 19
First Quarter

Hourly Weather History & Observations

Time (MST) Temp. Windchill Dew Point Humidity Pressure Visibility Wind Dir Wind Speed Gust Speed Precip Events Conditions
12:53 AM -0.9 °F -14.1 °F -5.1 °F 83% 30.03 in 10.0 mi North 6.9 mph - N/A   Clear
1:53 AM -2.0 °F -15.4 °F -6.0 °F 83% 30.06 in 10.0 mi NE 6.9 mph - N/A   Clear
2:53 AM -0.9 °F -16.4 °F -6.0 °F 79% 30.04 in 10.0 mi NNE 9.2 mph - N/A   Clear
3:53 AM -7.1 °F -21.4 °F -11.9 °F 79% 30.08 in 10.0 mi NNE 6.9 mph - N/A   Clear
4:53 AM -5.1 °F -20.4 °F -9.0 °F 83% 30.10 in 10.0 mi NNE 8.1 mph - N/A   Clear
5:53 AM -6.0 °F -22.6 °F -11.0 °F 79% 30.14 in 10.0 mi NE 9.2 mph - N/A   Clear
6:53 AM -4.0 °F -21.2 °F -9.0 °F 79% 30.18 in 10.0 mi NE 10.4 mph - N/A   Clear
7:53 AM 1.0 °F -12.9 °F -5.1 °F 75% 30.18 in 10.0 mi NE 8.1 mph - N/A   Clear
8:53 AM 8.1 °F -5.3 °F -0.0 °F 70% 30.13 in 10.0 mi North 9.2 mph - N/A   Clear
9:53 AM 12.9 °F -0.2 °F -0.9 °F 54% 30.05 in 10.0 mi NW 10.4 mph - N/A   Clear
10:53 AM 18.0 °F 3.6 °F -8.0 °F 31% 30.02 in 10.0 mi NNW 15.0 mph 23.0 mph N/A   Clear
11:53 AM 21.0 °F 9.9 °F -5.1 °F 32% 29.99 in 10.0 mi NW 10.4 mph 17.3 mph N/A   Clear
12:53 PM 21.9 °F 12.5 °F -0.9 °F 37% 29.96 in 10.0 mi NW 8.1 mph 18.4 mph N/A   Clear
1:53 PM 23.0 °F 13.1 °F 3.0 °F 42% 29.94 in 10.0 mi NW 9.2 mph - N/A   Clear
2:53 PM 24.1 °F 15.2 °F 3.0 °F 40% 29.92 in 10.0 mi WNW 8.1 mph - N/A   Clear
3:53 PM 25.0 °F 14.8 °F 3.0 °F 39% 29.95 in 10.0 mi WNW 10.4 mph 18.4 mph N/A   Clear
4:53 PM 21.9 °F 12.5 °F 3.9 °F 46% 29.96 in 10.0 mi NW 8.1 mph - N/A   Clear
5:53 PM 18.0 °F 7.7 °F 3.9 °F 54% 30.00 in 10.0 mi NW 8.1 mph - N/A   Clear
6:53 PM 12.9 °F 3.8 °F 1.9 °F 62% 30.01 in 10.0 mi NNE 5.8 mph - N/A   Clear
7:53 PM 8.1 °F -5.3 °F -0.9 °F 67% 30.01 in 10.0 mi NE 9.2 mph - N/A   Clear
8:53 PM 3.9 °F -6.9 °F -4.0 °F 70% 29.99 in 10.0 mi Variable 5.8 mph - N/A   Clear
9:53 PM 12.9 °F -0.9 °F -0.0 °F 56% 29.86 in 10.0 mi NE 11.5 mph 17.3 mph N/A   Clear
10:53 PM 10.9 °F 0.2 °F 1.0 °F 64% 29.81 in 10.0 mi Variable 6.9 mph - N/A   Clear
11:53 PM 10.9 °F -1.8 °F -0.0 °F 61% 29.79 in 10.0 mi NE 9.2 mph - N/A   Clear